Regional Weather Roundup
Issued by NWS Jackson, KY

Home | Current Version | Previous Version | Text Only | Print | Product List | Glossary On
Versions: 1 2 3 4 5 6 7 8 9 10 11 12 13 14 15 16 17 18 19 20 21 22 23 24 25 26 27 28 29 30 31 32 33 34 35 36 37 38 39 40 41 42 43 44 45 46 47 48 49 50
000
ASUS43 KJKL 231710
RWRJKL

EAST KENTUCKY HOURLY WEATHER ROUNDUP
NATIONAL WEATHER SERVICE JACKSON KY
100 PM EDT SAT MAY 23 2015

NOTE: "FAIR" INDICATES FEW OR NO CLOUDS BELOW 12,000 FEET WITH
NO SIGNIFICANT WEATHER AND/OR OBSTRUCTIONS TO VISIBILITY.

* THESE REPORTS ARE NOT UNDER NWS QUALITY CONTROL AND MAY NOT
  REPORT WEATHER SUCH AS PRECIPITATION AND FOG.

KYZ079-080-083-085-087-088-110-112-115-119-120-231800
...EASTERN KENTUCKY...

CITY           SKY/WX    TMP DP  RH WIND       PRES   REMARKS
JACKSON        SUNNY     73  47  39 VRB6      30.41F
LONDON         MOSUNNY   74  41  30 S6        30.39F
SOMERSET*      PTSUNNY   73  46  38 SW3       30.39F
MONTICELLO*    SUNNY     77  54  44 S6        30.39F
MIDDLESBORO*   SUNNY     73  48  41 CALM      30.40F
HARLAN APT*    SUNNY     73  43  33 E3        30.41F
HAZARD APT*    SUNNY     77  45  31 CALM      30.40F
BLACK MTN*       N/A     66  43  42 S1          N/A
PIKEVILLE APT* SUNNY     72  48  43 E6        30.42F
BIG SANDY*     PTSUNNY   73  49  43 CALM      30.42F
MOREHEAD APT*  PTSUNNY   75  50  41 VRB5      30.42F
$$

KYZ035-036-041-042-044-050-067-078-099-231800
...CENTRAL KENTUCKY...

CITY           SKY/WX    TMP DP  RH WIND       PRES   REMARKS
MT STERLING*   MOSUNNY   73  45  35 S3        30.41F
FLEMING/MASON* SUNNY     73  50  43 S5        30.41F
DANVILLE*      SUNNY     77  46  33 S9        30.39F
RICHMOND*      SUNNY     75  43  31 S9        30.38F
LEXINGTON      PTSUNNY   76  49  38 S12       30.38F
FRANKFORT      MOSUNNY   75  48  38 MISG      30.37F
$$

KYZ091>093-OHZ055-061-077-WVZ005-015-034-035-042-231800
...SOUTHERN OHIO/WEST VIRGINIA...

CITY           SKY/WX    TMP DP  RH WIND       PRES   REMARKS
COVINGTON      PTSUNNY   75  48  38 S9        30.39F
COLUMBUS       MOSUNNY   70  41  34 CALM      30.40F
DAYTON         MOSUNNY   75  45  34 SW8       30.39F
WILMINGTON     SUNNY     74  38  27 SE5       30.39F
HUNTINGTON     PTSUNNY   75  51  43 W5        30.40F
CHARLESTON     PTSUNNY   73  47  39 VRB5      30.41F
PINEVILLE*     MOSUNNY   73  49  43 MISG      30.48F
BECKLEY        MOSUNNY   68  41  37 W8        30.46S
BLUEFIELD      MOSUNNY   70  45  40 VRB7      30.47F
$$

VAZ002-007-008-TNZ017-027-036-066-071-231800
...SOUTHWEST VIRGINIA/EAST TENNESSEE...

CITY           SKY/WX    TMP DP  RH WIND       PRES   REMARKS
WISE*          SUNNY     72  37  28 S8G16     30.46F
JONESVILLE*    SUNNY     73  45  35 CALM      30.43F
ABINGDON*      SUNNY     74  38  27 W3        30.44F
BRISTOL        MOSUNNY   75  44  33 S7        30.42F
KNOXVILLE      MOSUNNY   75  49  39 NE3       30.39F
OAK RIDGE      SUNNY     76  51  41 VRB5      30.40F
CROSSVILLE     SUNNY     73  53  49 S9        30.40F
NASHVILLE      PTSUNNY   76  46  34 CALM      30.36R
$$

...KEY TO REMARKS...
VSB - VISIBILITY IN MILES
WCI - WIND CHILL INDEX
HX  - HEAT INDEX

$$


USA.gov is the U.S. government's official web portal to all federal, state and local government web resources and services.